"Pseudo-MPEC" for ZTF0Mmx

Created 2021 Sep 29 11:07:33 UT using Find_Orb

Click here for an explanation of pseudo-MPECs

 
 Astrometry: 
     ZTF0Mmx  C2021 09 14.46631006 45 25.48 +55 43 59.5    ~9FDb 19.82rUNEOCPI41
     ZTF0Mmx  C2021 09 14.49468106 45 34.13 +55 44 06.7    ~9FDb 20.60gUNEOCPI41
     ZTF0Mmx  C2021 09 25(?wN4YS+xcXyU3O_)M1n`buNIb!d]?;f-AstrometryN?lL\%%78F52
     ZTF0Mmx  C2021 09 25Twn7$%_dh[8kSTFS?^r4JZcCLi%QoqC#H8;LqT695(+h\+A!inj9F52
     ZTF0Mmx  C2021 09 27(S6.v:Eg]#5Ora!Lw:b%E*aQ=tN-hV:$djtX6a9vE1]F]4ay9`^UF52
     ZTF0Mmx  C2021 09 27kdrf8YTHs2f=-ESn;Fk:1(ao=HV`e.J]Np(C:+a!*:py;;9LCTu`F52
     ZTF0Mmx  C2021 09 270xqM^\5/tc%jED49)u;gi1f^L%1IZ,dj^[qCq,,koredacted;16F52
     ZTF0Mmx  C2021 09 27n/$.lS#Yv4E[:Kl=_R')7b!44a@YWQo%;M3-6g#$28r7^6vjq'4[N51
     ZTF0Mmx  C2021 09 27oHB5'SgQY\$Fi_7V;CThZ8XW(O7dcLY1nom6D[r[aclick;rrWh;N51
     ZTF0Mmx 1C2021 09 291Vu#4,`=wJ'I]8r,_tv]/n`j0!=\Y+wD;L)3bF0fMZI@R0%,c5U#Z84
     ZTF0Mmx 1C2021 09 29Y?Xv!k[R6vX8%kT@S6CMBS-H:p7oMph+GCw(ugYSY8y3!SLkPS3*Z84
     ZTF0Mmx 1C2021 09 29`5x0LG]v5CwXtZ-a9:@Q9SJheren`P_6)rtDarT3?ld.iafcAMJ4Z84
     ZTF0Mmx KC2021 09 29hDf'QjP7t5'WbV!I(07HV!0Ebw.^$2rlV8N-\$xVmY4U5fori%ypZ31
     ZTF0Mmx KC2021 09 29@UqP3'bq,tDxP\7sexplanation*5Oxo=-^-f`\BpSMJAT38`a69Z31
     ZTF0Mmx KC2021 09 29lM?)F$suVhmcTP):2%d@R5aaS!cj:Uq49=l2lHT_eZm;=b(CLO;cZ31

Station data:
(F52) Pan-STARRS 2, Haleakala  (N20.707384 W156.255910)  US/Hawaii. 1.8-m
   Ritchey-Chrétien + CCD.
(I41) Palomar Mountain--ZTF  (N33.357340 W116.859780)  US/California. 1.2-m
   f/2.44 Oschin Schmidt + CCD.
(N51) GROWTH India Telescope, IAO, Hanle  (N32.779244 E78.964610)  India.
(Z31) Tenerife Observatory-LCO A, Tenerife  (N28.300417 W16.511650)  Canary
   Islands (Spain).
(Z84) Calar Alto-Schmidt  (N37.224049 W2.548210)  Spain.  Observer E. Schwab.
   Measurers E. Schwab, D. Koschny, M. Micheli. 0.8-m f/3 Schmidt + CCD.

Orbital elements:  ZTF0Mmx
   Perihelion 2021 Aug 22.764276 +/- 0.497018 TT = 18:20:33 (JD 2459449.264276)
Epoch 2021 Sep 29.0 TT = JDT 2459486.5   Earth MOID: 0.4491   AutoNEOCP
M   8.73036135 +/- 0.5605677        (J2000 ecliptic)
n   0.23446197 +/- 0.012449         Peri.   61.65761 +/- 0.5075513
a   2.60468036 +/- 0.0923616        Node   323.51034 +/- 0.3522843
e   0.5012022 +/- 0.0147212         Incl.   27.66986 +/- 0.1238931
P   4.20                   H 17.8   G  0.15   U  9.8  
q 1.29920866 +/- 0.00822503    Q 3.91015207 +/- 0.189639
From 15 observations 2021 Sept. 14-29; mean residual 0".31
Residuals in arcseconds: 
210914 I41  .07-  .05+    210927 F52  .13+  .03-    210929 Z84  .02+  .01+    
210914 I41  .05+  .04-    210927 F52  .15+  .07-    210929 Z84  .05+  .12+    
210925 F52  .09+  .05-    210927 N51  1.3-  .38+    210929 Z31  .17-  .18+    
210925 F52  .13+  .01+    210927 N51  .87-  .42+    210929 Z31  .20-  .07+    
210927 F52  .03+  .04-    210929 Z84  .03+  .02-    210929 Z31  .06-  .04+    

Ephemerides (geocentric):
Date (UTC) HH   RA              Dec         delta   r     elong  mag " sig PA
---- -- -- --  -------------   -----------  ------ ------ -----  --- ---- ---
2021 09 29 11  07 55 59.201   +55 36 45.01  1.1255 1.3593  79.2 20.5 .987 127
2021 09 29 12  07 56 09.738   +55 36 35.08  1.1255 1.3594  79.2 20.5 1.00 128
2021 09 29 13  07 56 20.268   +55 36 25.11  1.1255 1.3595  79.2 20.5 1.01 128
2021 09 29 14  07 56 30.789   +55 36 15.10  1.1255 1.3596  79.2 20.5 1.02 128
2021 09 29 15  07 56 41.304   +55 36 05.06  1.1255 1.3598  79.2 20.5 1.03 128
2021 09 29 16  07 56 51.810   +55 35 54.98  1.1255 1.3599  79.2 20.5 1.04 128
2021 09 29 17  07 57 02.309   +55 35 44.86  1.1255 1.3600  79.3 20.5 1.05 128
2021 09 29 18  07 57 12.801   +55 35 34.71  1.1255 1.3602  79.3 20.5 1.06 129
2021 09 29 19  07 57 23.284   +55 35 24.53  1.1255 1.3603  79.3 20.5 1.07 129
2021 09 29 20  07 57 33.761   +55 35 14.30  1.1255 1.3604  79.3 20.5 1.08 129
2021 09 29 21  07 57 44.229   +55 35 04.05  1.1255 1.3605  79.3 20.5 1.09 129
2021 09 29 22  07 57 54.690   +55 34 53.75  1.1255 1.3607  79.3 20.5 1.10 129
2021 09 29 23  07 58 05.144   +55 34 43.42  1.1255 1.3608  79.3 20.5 1.11 129
2021 09 30 00  07 58 15.589   +55 34 33.06  1.1255 1.3609  79.3 20.5 1.12 129
2021 09 30 01  07 58 26.028   +55 34 22.66  1.1255 1.3611  79.3 20.5 1.13 130
2021 09 30 02  07 58 36.458   +55 34 12.22  1.1255 1.3612  79.3 20.5 1.14 130
2021 09 30 03  07 58 46.881   +55 34 01.75  1.1255 1.3613  79.4 20.5 1.15 130
2021 09 30 04  07 58 57.296   +55 33 51.24  1.1255 1.3615  79.4 20.5 1.16 130
2021 09 30 05  07 59 07.704   +55 33 40.70  1.1255 1.3616  79.4 20.5 1.17 130
2021 09 30 06  07 59 18.104   +55 33 30.13  1.1255 1.3617  79.4 20.5 1.18 130
2021 09 30 07  07 59 28.496   +55 33 19.52  1.1255 1.3618  79.4 20.5 1.20 130
2021 09 30 08  07 59 38.881   +55 33 08.87  1.1255 1.3620  79.4 20.5 1.21 130
2021 09 30 09  07 59 49.258   +55 32 58.20  1.1255 1.3621  79.4 20.5 1.22 131
2021 09 30 10  07 59 59.627   +55 32 47.48  1.1255 1.3622  79.4 20.5 1.23 131
2021 09 30 11  08 00 09.989   +55 32 36.73  1.1255 1.3624  79.4 20.5 1.24 131
2021 09 30 12  08 00 20.343   +55 32 25.95  1.1255 1.3625  79.4 20.5 1.25 131
2021 09 30 13  08 00 30.690   +55 32 15.14  1.1255 1.3626  79.4 20.5 1.26 131
2021 09 30 14  08 00 41.029   +55 32 04.28  1.1255 1.3628  79.5 20.5 1.28 131
2021 09 30 15  08 00 51.360   +55 31 53.40  1.1255 1.3629  79.5 20.5 1.29 131
2021 09 30 16  08 01 01.683   +55 31 42.48  1.1255 1.3630  79.5 20.5 1.30 131
2021 09 30 17  08 01 11.999   +55 31 31.53  1.1255 1.3632  79.5 20.5 1.31 131
2021 09 30 18  08 01 22.307   +55 31 20.54  1.1255 1.3633  79.5 20.5 1.32 131
2021 09 30 19  08 01 32.607   +55 31 09.52  1.1255 1.3634  79.5 20.5 1.34 132
2021 09 30 20  08 01 42.900   +55 30 58.47  1.1255 1.3635  79.5 20.5 1.35 132
2021 09 30 21  08 01 53.185   +55 30 47.39  1.1255 1.3637  79.5 20.5 1.36 132
2021 09 30 22  08 02 03.463   +55 30 36.27  1.1255 1.3638  79.5 20.5 1.37 132
2021 09 30 23  08 02 13.732   +55 30 25.11  1.1255 1.3639  79.5 20.5 1.39 132
2021 10 01 00  08 02 23.994   +55 30 13.93  1.1255 1.3641  79.6 20.5 1.40 132
2021 10 01 01  08 02 34.249   +55 30 02.71  1.1255 1.3642  79.6 20.5 1.41 132
2021 10 01 02  08 02 44.495   +55 29 51.46  1.1255 1.3643  79.6 20.5 1.42 132
2021 10 01 03  08 02 54.734   +55 29 40.17  1.1255 1.3645  79.6 20.5 1.44 132
2021 10 01 04  08 03 04.965   +55 29 28.85  1.1255 1.3646  79.6 20.5 1.45 132
2021 10 01 05  08 03 15.189   +55 29 17.50  1.1255 1.3647  79.6 20.5 1.46 132
2021 10 01 06  08 03 25.404   +55 29 06.12  1.1255 1.3649  79.6 20.5 1.47 132
2021 10 01 07  08 03 35.612   +55 28 54.71  1.1255 1.3650  79.6 20.5 1.49 132
2021 10 01 08  08 03 45.813   +55 28 43.26  1.1255 1.3651  79.6 20.5 1.50 132
2021 10 01 09  08 03 56.005   +55 28 31.78  1.1255 1.3653  79.6 20.5 1.51 132
2021 10 01 10  08 04 06.190   +55 28 20.27  1.1255 1.3654  79.7 20.5 1.53 133